Temperature
16 15 15 15 15 15 15 15 14 14 14 14 14 14 14 13 13 13 13 13 13 13 13 13 13 13 13 13 13 12 12 12 12 12 12 12 12 12 12 11 11 11 11
15 15 15 15 15 14 14 14 14 14 14 14 14 13 13 13 13 13 13 13 13 13 12 12 12 12 13 12 12 12 12 12 12 12 12 12 12 12 11 11 11 11 11
15 15 15 14 14 14 14 14 14 14 14 13 13 13 13 13 13 13 13 12 12 12 12 12 12 12 12 12 12 12 12 12 12 12 12 12 11 11 11 11 11 11 11
14 14 14 14 14 14 14 14 14 13 13 13 13 13 13 13 13 12 12 12 12 12 12 12 12 12 12 12 12 12 12 12 11 11 11 11 11 11 11 11 11 10 10
14 14 14 14 14 14 14 13 13 13 13 13 13 13 13 12 12 12 12 12 12 12 12 12 12 11 11 11 11 11 11 11 11 11 11 11 11 11 10 10 10 10 10
13 13 13 13 13 13 13 13 13 13 13 13 13 12 12 12 12 12 12 12 12 12 12 12 11 11 11 11 11 11 11 11 11 11 11 11 11 11 10 10 10 10 10
13 13 13 13 13 13 13 13 13 12 12 12 12 12 12 12 12 12 12 12 12 11 11 11 11 11 11 11 11 11 11 11 10 10 10 10 10 10 10 10 10 10 10
13 13 12 12 12 12 12 12 12 12 12 12 12 12 12 12 12 11 11 11 11 11 11 11 11 11 11 11 11 11 11 10 10 10 10 10 10 10 10 10 9 9 9
12 12 12 12 12 12 12 12 12 12 12 11 11 11 11 11 11 11 11 11 11 11 11 11 11 11 11 10 10 10 10 10 10 10 10 10 10 9 9 9 9 9 9
12 12 12 11 11 11 11 11 11 11 11 11 11 11 11 11 11 11 11 11 11 11 11 11 11 10 10 10 10 10 10 10 10 10 10 10 9 9 9 9 9 9 9
11 11 11 11 11 11 11 11 11 10 10 11 11 11 10 11 11 11 11 10 10 11 11 11 11 10 10 10 10 10 10 10 10 10 9 9 9 9 9 9 8 8 8
11 11 11 11 11 10 10 10 10 10 10 10 10 10 10 10 10 10 10 10 10 10 10 10 10 10 10 10 10 10 9 9 9 9 9 9 9 9 9 8 8 8 8
10 10 10 10 10 10 10 10 10 9 9 9 9 9 10 10 10 10 10 10 10 10 10 10 10 10 10 9 9 9 9 9 9 9 9 9 9 8 8 8 8 8 8
10 10 10 10 10 9 9 9 9 9 9 9 9 9 9 9 9 9 9 9 9 9 9 9 9 9 9 9 9 9 9 9 8 8 8 8 8 8 8 8 8 8 7
10 9 9 9 9 9 9 9 9 9 9 9 9 8 8 9 9 9 9 9 9 9 9 9 9 9 9 9 9 9 8 8 8 8 8 8 8 8 8 7 7 7 7
9 9 9 9 9 9 8 8 8 8 8 8 8 8 8 8 8 8 8 8 8 8 8 8 8 8 8 8 8 8 8 8 8 8 8 7 7 7 7 7 7 7 7
8 8 8 8 8 8 8 8 8 8 8 8 8 8 7 7 7 8 8 8 8 8 8 8 8 8 8 8 8 8 8 7 7 7 7 7 7 7 7 7 6 6 6
8 8 8 7 7 7 7 7 7 7 7 7 7 7 7 7 7 7 7 7 7 7 7 7 7 7 7 7 7 7 7 7 7 7 7 7 6 6 6 6 6 6 6
7 7 7 7 7 7 7 7 7 7 7 7 7 7 7 7 7 7 7 7 6 6 7 7 7 7 7 7 7 7 6 7 7 7 6 6 6 6 6 6 6 6 5
7 7 7 7 6 6 6 6 6 6 6 6 6 6 6 6 6 6 6 6 6 6 6 6 6 6 6 6 6 6 6 6 6 6 6 6 6 6 6 6 5 5 5
6 6 6 6 6 6 6 6 5 5 5 5 5 6 6 5 5 5 6 6 6 6 6 5 6 6 6 6 6 6 5 5 5 5 5 5 5 5 5 5 5 5 5
6 6 6 6 5 5 5 5 5 5 5 5 5 5 5 5 5 5 5 5 5 5 5 5 5 5 5 5 5 5 5 5 5 5 5 5 5 5 5 4 4 4 4
6 5 5 5 5 5 5 4 4 4 4 4 4 4 4 4 4 4 4 4 4 4 4 4 4 5 5 5 4 4 4 5 4 4 4 4 4 4 4 4 4 4 3
5 5 5 5 4 4 4 4 4 4 4 4 4 4 4 4 4 4 4 4 4 4 4 4 4 4 4 4 4 4 4 4 4 4 4 4 4 4 4 3 3 3 3
5 5 5 4 4 4 4 4 4 3 3 3 3 3 3 3 3 3 3 3 3 3 3 3 4 4 4 4 4 4 4 4 3 3 3 3 3 3 3 3 2 2 2
4 4 4 4 4 4 3 3 3 3 3 3 3 3 3 3 3 3 3 3 3 3 3 3 3 3 3 3 3 3 3 3 3 3 3 3 2 2 2 2 2 2 1
Wind_Speed
3 3 3 3 2 2 3 3 3 3 3 3 4 4 4 4 4 4 4 4 4 3 3 4 4 3 2 3 3 3 3 3 3 2 1 1 1 1 1 2 2 2 2
2 2 2 2 2 2 2 3 3 3 3 4 3 3 3 4 4 5 5 4 4 4 4 3 3 2 3 3 3 4 3 3 3 3 1 1 2 2 1 1 1 2 2
2 2 2 1 2 2 3 2 2 3 3 3 4 4 4 4 4 5 5 5 5 5 4 4 4 3 3 3 3 3 3 3 3 3 2 1 1 1 1 1 0 1 1
2 2 2 2 2 2 2 2 2 2 3 3 4 5 5 4 4 4 4 5 5 5 5 5 5 5 5 4 4 4 3 3 2 2 2 1 1 1 1 1 1 1 1
3 3 3 2 2 1 1 1 1 2 2 3 3 3 4 4 5 5 5 5 5 4 4 5 5 6 7 5 4 4 4 3 3 3 2 1 1 2 2 2 2 1 1
3 3 2 2 1 1 1 1 1 1 2 2 3 3 4 4 5 6 5 5 5 5 5 4 4 5 6 7 7 7 7 6 5 4 3 4 4 3 2 3 2 1 2
3 2 2 2 2 2 2 1 2 2 2 2 3 3 4 5 6 6 7 4 5 5 6 5 4 4 5 4 5 6 6 7 8 6 5 6 5 5 4 3 3 3 3
2 2 1 2 2 2 1 2 2 2 2 2 3 3 3 4 5 6 6 5 4 5 5 6 6 5 5 5 4 3 3 4 6 5 6 6 6 5 6 5 4 3 1
2 2 2 2 2 2 2 3 2 2 2 3 3 3 3 4 5 4 5 3 4 5 5 5 6 6 7 7 5 4 3 3 4 6 7 7 6 6 6 4 3 3 2
3 3 2 2 2 3 3 3 2 2 3 3 3 3 4 4 5 4 3 3 3 4 3 4 6 7 8 8 6 6 5 5 3 2 2 3 3 5 7 6 5 4 2
2 1 1 1 2 2 2 2 2 2 2 2 2 3 3 4 5 5 4 3 4 4 4 4 5 8 8 8 7 6 7 5 4 3 2 2 1 1 2 4 5 5 4
1 1 1 1 1 1 1 1 1 2 2 2 2 2 3 3 4 4 5 5 4 4 5 4 5 8 8 8 6 6 7 5 3 3 2 2 2 3 2 3 4 4 4
0 1 1 1 1 1 1 1 1 1 1 2 2 3 3 3 3 4 5 5 5 4 4 6 6 7 7 6 6 7 5 4 3 3 4 4 3 3 2 1 1 2 1
0 1 1 1 1 1 1 1 1 2 2 2 3 3 3 3 3 3 3 3 3 3 3 3 4 4 4 4 4 3 3 4 4 4 4 3 2 2 2 2 2 2 1
1 1 1 1 1 1 1 2 2 3 3 3 3 4 3 4 5 5 3 3 3 3 1 1 1 1 2 2 2 2 2 3 4 3 3 3 2 2 2 2 2 2 2
0 1 1 2 1 1 2 3 3 3 4 4 4 4 4 5 6 5 4 4 3 2 1 2 3 3 4 4 4 3 3 4 5 4 4 4 4 4 3 2 2 3 3
1 1 1 1 1 2 2 2 3 4 4 4 4 4 4 5 5 4 4 3 2 3 1 3 3 4 4 4 4 5 5 5 4 5 5 5 4 4 3 4 4 3 4
1 1 1 1 1 2 2 2 2 3 3 4 4 4 5 5 5 5 3 1 1 2 2 3 4 4 3 4 4 4 4 4 4 5 5 5 5 5 4 4 5 5 5
1 1 1 1 1 2 2 2 2 2 3 3 4 4 5 4 4 3 1 2 2 3 3 3 3 3 3 4 4 4 4 4 4 5 5 5 5 5 5 6 5 7 6
1 2 1 0 1 1 2 2 2 2 3 3 4 4 2 1 1 1 2 2 3 3 3 3 3 3 3 3 3 3 3 4 4 5 5 5 5 6 6 7 6 6 6
1 1 1 1 1 1 2 2 2 2 3 3 4 4 3 2 2 3 3 3 3 4 3 3 3 3 3 2 2 3 3 3 4 4 4 5 5 5 5 5 6 6 5
1 1 1 1 2 2 2 2 2 2 3 3 4 4 4 2 2 2 3 3 4 4 3 3 3 3 3 3 3 3 3 3 3 3 4 4 4 5 5 5 5 5 5
2 1 1 2 2 3 3 2 2 3 3 3 3 3 2 2 3 3 3 3 3 3 3 2 3 2 2 2 3 3 4 4 4 4 4 4 4 4 4 5 5 5 5
2 2 2 2 2 3 3 3 3 3 4 4 3 3 3 3 3 3 3 3 3 3 2 2 3 3 3 3 3 4 4 5 4 4 4 4 4 4 4 4 5 5 5
3 3 3 3 3 4 4 4 4 4 4 4 4 4 4 4 4 4 3 3 3 3 3 3 3 3 4 4 4 4 5 6 5 4 4 4 4 4 3 3 3 3 4
3 4 4 4 4 4 4 5 5 5 5 5 5 5 5 5 5 4 4 3 3 4 4 4 4 4 4 4 5 6 6 5 5 4 3 3 3 3 3 3 3 3 4
Wind_Direction
179 185 176 182 181 177 193 213 210 202 191 191 195 194 193 195 190 183 196 193 196 213 215 204 215 202 193 193 182 180 185 175 208 253 242 254 229 241 267 238 226 218 229
178 161 167 171 160 172 201 216 205 204 202 197 192 189 198 197 189 187 195 194 194 203 211 201 218 209 201 199 189 194 198 193 192 222 241 234 232 226 230 243 234 221 222
161 154 144 143 166 200 215 216 203 207 208 200 191 195 204 204 197 198 196 199 203 207 204 203 212 196 213 214 201 204 206 200 187 191 217 224 252 219 196 282 287 293 239
160 159 172 190 199 213 212 204 203 206 207 207 203 207 209 210 207 205 201 203 207 211 210 211 211 207 215 214 210 208 196 183 175 176 200 215 232 226 170 200 292 305 296
163 179 207 214 211 201 204 208 201 204 219 215 204 213 214 214 214 206 203 206 209 216 219 219 220 221 222 214 210 199 184 181 179 182 196 198 213 195 210 200 208 284 292
167 198 212 201 198 210 218 206 201 225 231 218 213 213 219 227 225 211 202 207 209 211 221 227 228 229 230 228 226 210 190 184 188 188 199 206 223 214 196 187 180 179 266
177 196 197 200 205 222 230 204 208 223 218 225 233 224 230 237 229 220 212 205 208 213 216 221 232 232 223 221 229 226 217 209 195 185 195 214 213 207 184 192 199 201 220
179 205 203 199 217 224 215 226 226 211 205 224 235 233 237 247 239 227 220 210 211 221 222 218 220 228 218 202 200 201 215 220 217 206 207 219 220 203 190 195 198 193 223
193 214 223 210 209 214 225 237 229 207 217 226 226 224 232 254 253 236 222 208 215 229 231 225 217 221 223 204 189 194 215 247 242 220 217 217 214 201 176 149 154 160 220
230 223 221 214 213 219 230 237 232 221 233 232 241 240 239 250 260 247 218 205 215 233 240 238 228 220 217 204 195 192 208 229 214 194 197 214 209 202 196 187 184 184 196
257 242 230 227 232 233 238 231 223 229 236 243 257 267 259 256 261 255 234 216 216 223 229 236 232 220 217 212 203 199 211 207 194 184 182 187 177 191 210 202 193 190 197
285 266 260 254 253 261 227 243 223 205 221 248 264 287 283 276 269 265 253 244 235 221 231 232 222 211 210 209 207 203 202 197 175 169 180 200 208 220 225 208 193 193 204
351 270 258 252 250 249 221 225 220 206 223 252 256 267 285 287 282 279 265 257 245 237 239 226 215 208 205 208 206 197 189 177 169 186 207 222 221 213 181 151 142 144 110
239 281 299 288 280 286 248 227 213 221 237 253 257 265 277 284 279 274 262 260 253 252 260 238 219 215 206 203 202 201 191 185 187 201 214 218 189 171 186 188 193 186 193
340 318 320 312 284 286 284 253 240 235 224 232 239 241 253 267 267 266 254 247 239 233 219 182 173 190 202 203 197 198 190 188 202 203 199 197 194 199 214 201 190 183 194
352 315 313 308 300 293 295 311 294 273 279 272 261 254 261 266 279 274 261 254 250 209 165 209 219 214 213 211 206 209 210 211 212 205 202 202 204 207 212 206 196 195 210
236 286 296 304 306 295 283 280 301 314 312 302 291 282 274 279 283 274 255 238 224 169 196 231 227 222 220 217 216 214 219 220 212 206 207 208 206 206 206 209 205 209 220
250 285 300 278 287 293 289 278 270 281 304 309 304 296 288 284 282 274 257 187 213 206 231 237 236 231 225 222 223 225 224 214 208 211 211 209 207 207 211 212 210 212 217
246 266 278 289 295 294 297 303 302 294 290 299 311 311 302 294 288 277 200 194 218 235 241 247 239 234 232 227 228 230 227 221 216 213 214 213 211 210 217 217 216 215 213
251 277 316 293 297 303 305 306 306 306 307 307 304 305 312 336 304 283 240 234 233 237 235 236 237 237 235 231 230 231 232 229 221 221 223 219 217 216 217 216 215 214 217
228 257 304 315 282 276 285 287 288 292 296 298 300 306 305 255 249 256 250 243 241 240 236 234 236 237 237 234 227 228 228 233 230 228 229 227 221 223 221 216 215 215 215
202 210 226 254 269 271 278 281 285 288 291 292 303 311 313 299 276 272 267 263 257 248 243 236 237 237 234 232 225 224 230 236 238 237 237 234 227 225 217 213 213 213 213
195 210 233 251 258 276 285 287 286 286 285 283 285 292 294 287 283 277 275 277 273 275 272 250 240 246 258 256 241 229 230 236 238 234 230 229 228 224 216 213 211 211 215
198 216 230 244 253 255 262 273 277 281 283 283 280 276 276 276 279 281 282 279 277 276 277 266 255 250 254 260 260 255 254 255 248 238 228 224 223 221 216 214 213 212 213
213 225 233 241 250 252 254 260 266 272 275 275 273 275 276 274 274 275 276 276 273 272 274 270 267 266 264 262 265 265 267 264 257 246 233 225 220 217 212 210 211 210 213
228 233 240 246 249 251 253 257 261 263 265 269 268 265 266 266 265 266 265 264 264 263 265 268 268 267 269 268 268 270 269 262 253 244 231 225 219 220 213 215 215 214 215
Height
1513 1515 1516 1517 1519 1519 1520 1521 1522 1523 1523 1524 1524 1524 1525 1526 1526 1527 1528 1529 1530 1531 1531 1532 1533 1533 1534 1534 1534 1535 1535 1535 1535 1535 1535 1535 1536 1536 1536 1535 1535 1535 1535
1511 1512 1513 1514 1515 1516 1517 1518 1519 1520 1520 1521 1521 1522 1522 1523 1523 1524 1525 1525 1526 1527 1528 1529 1529 1530 1530 1531 1531 1531 1532 1532 1532 1532 1532 1533 1533 1533 1533 1533 1533 1533 1533
1509 1510 1511 1512 1512 1513 1514 1515 1516 1517 1517 1518 1518 1519 1519 1520 1520 1521 1521 1522 1523 1524 1524 1525 1526 1526 1527 1527 1528 1528 1529 1529 1529 1529 1529 1529 1530 1530 1530 1531 1531 1531 1531
1506 1507 1508 1509 1510 1510 1511 1512 1512 1513 1514 1514 1515 1515 1516 1516 1517 1518 1518 1519 1519 1520 1521 1521 1522 1522 1523 1524 1524 1524 1525 1525 1526 1526 1526 1526 1527 1527 1528 1528 1528 1528 1528
1503 1504 1505 1506 1507 1508 1508 1509 1509 1510 1510 1511 1511 1512 1512 1513 1513 1514 1514 1515 1516 1516 1517 1518 1518 1519 1519 1520 1520 1521 1521 1521 1522 1522 1522 1523 1523 1524 1524 1524 1525 1525 1525
1501 1501 1502 1503 1504 1505 1505 1505 1506 1506 1506 1507 1507 1508 1509 1509 1509 1510 1511 1511 1512 1512 1513 1514 1514 1515 1515 1516 1516 1517 1517 1518 1518 1518 1518 1519 1519 1520 1521 1521 1522 1522 1522
1498 1499 1500 1500 1501 1501 1502 1502 1502 1502 1503 1503 1504 1504 1505 1505 1506 1506 1507 1507 1508 1508 1509 1510 1510 1511 1511 1512 1512 1513 1513 1514 1514 1515 1515 1515 1516 1517 1517 1518 1518 1518 1519
1496 1496 1497 1497 1497 1498 1498 1498 1499 1499 1499 1499 1500 1500 1501 1501 1502 1503 1503 1504 1504 1504 1505 1505 1506 1507 1507 1508 1508 1509 1509 1510 1510 1511 1511 1512 1512 1513 1514 1514 1515 1515 1515
1493 1494 1494 1494 1494 1494 1495 1495 1495 1495 1496 1496 1496 1496 1496 1497 1498 1499 1499 1499 1500 1500 1501 1501 1502 1503 1503 1504 1504 1504 1505 1506 1506 1507 1507 1508 1509 1509 1510 1510 1510 1511 1511
1491 1491 1491 1491 1491 1491 1491 1491 1492 1492 1492 1492 1492 1492 1493 1493 1494 1494 1495 1495 1495 1495 1496 1497 1498 1498 1499 1499 1500 1500 1500 1501 1502 1503 1503 1504 1505 1505 1506 1506 1507 1507 1507
1489 1489 1489 1489 1488 1488 1488 1488 1488 1488 1489 1488 1488 1489 1489 1489 1490 1490 1491 1491 1490 1491 1491 1492 1493 1494 1494 1495 1495 1496 1496 1497 1498 1498 1499 1499 1500 1501 1502 1502 1503 1503 1503
1486 1486 1486 1486 1486 1485 1485 1485 1485 1485 1485 1485 1484 1485 1485 1485 1485 1486 1486 1486 1487 1486 1486 1487 1488 1489 1489 1490 1491 1491 1492 1493 1493 1494 1494 1495 1496 1497 1498 1498 1499 1499 1499
1484 1484 1483 1483 1483 1483 1482 1482 1482 1482 1481 1481 1481 1480 1480 1481 1481 1481 1482 1482 1482 1482 1482 1482 1483 1484 1485 1485 1486 1487 1488 1488 1489 1489 1489 1490 1492 1492 1493 1494 1494 1495 1495
1481 1481 1480 1480 1480 1480 1480 1479 1479 1478 1478 1478 1477 1476 1476 1476 1476 1476 1476 1476 1477 1477 1477 1477 1478 1478 1479 1480 1480 1481 1482 1483 1484 1484 1485 1486 1487 1488 1488 1489 1489 1490 1490
1478 1478 1478 1477 1477 1476 1476 1476 1475 1475 1475 1474 1474 1473 1472 1471 1472 1472 1472 1471 1471 1472 1472 1472 1472 1472 1473 1474 1475 1476 1477 1478 1479 1479 1480 1481 1482 1482 1483 1484 1484 1484 1484
1475 1475 1475 1474 1474 1473 1473 1472 1472 1472 1472 1471 1471 1470 1468 1468 1468 1468 1467 1467 1467 1468 1468 1467 1467 1467 1468 1468 1469 1470 1471 1472 1473 1474 1475 1476 1476 1477 1478 1478 1479 1479 1479
1472 1472 1472 1471 1471 1470 1470 1469 1468 1468 1468 1467 1466 1466 1465 1464 1463 1463 1463 1463 1463 1463 1463 1462 1462 1463 1463 1463 1464 1465 1466 1467 1468 1469 1469 1470 1471 1471 1472 1472 1473 1473 1473
1470 1470 1469 1469 1468 1467 1467 1466 1465 1464 1463 1462 1462 1461 1460 1459 1459 1458 1458 1458 1457 1457 1457 1457 1457 1458 1458 1459 1459 1460 1460 1461 1462 1463 1464 1464 1465 1466 1466 1466 1467 1467 1468
1468 1467 1467 1466 1466 1465 1464 1463 1462 1461 1460 1458 1457 1456 1455 1454 1454 1454 1453 1453 1453 1453 1453 1453 1453 1453 1454 1454 1454 1455 1455 1456 1456 1457 1458 1458 1459 1460 1460 1460 1461 1461 1462
1465 1465 1464 1463 1462 1462 1461 1460 1458 1457 1456 1455 1453 1452 1451 1450 1449 1449 1449 1449 1449 1449 1449 1449 1449 1449 1449 1449 1449 1450 1450 1450 1451 1451 1452 1453 1453 1453 1454 1454 1455 1455 1456
1462 1462 1461 1460 1459 1458 1457 1456 1455 1454 1453 1451 1450 1449 1447 1446 1445 1445 1445 1445 1445 1444 1444 1444 1444 1444 1444 1444 1444 1444 1445 1445 1445 1446 1446 1447 1447 1447 1447 1448 1448 1449 1450
1459 1458 1458 1457 1456 1455 1454 1453 1452 1451 1449 1448 1446 1445 1444 1443 1442 1441 1441 1441 1440 1440 1440 1440 1439 1439 1439 1439 1439 1439 1439 1439 1439 1440 1440 1440 1441 1441 1441 1442 1442 1443 1443
1456 1455 1454 1454 1453 1452 1451 1450 1448 1447 1446 1444 1443 1442 1441 1440 1439 1438 1437 1437 1436 1436 1436 1435 1435 1435 1435 1435 1435 1435 1435 1434 1434 1434 1434 1434 1434 1435 1435 1435 1436 1436 1437
1452 1451 1451 1450 1449 1448 1447 1446 1444 1443 1441 1440 1439 1438 1437 1436 1435 1434 1433 1432 1432 1432 1431 1431 1431 1431 1431 1431 1430 1430 1430 1430 1430 1429 1429 1429 1429 1429 1429 1429 1430 1430 1431
1448 1447 1446 1446 1445 1444 1442 1441 1440 1439 1437 1436 1435 1434 1433 1432 1431 1430 1429 1428 1428 1427 1427 1427 1426 1426 1426 1426 1425 1425 1425 1425 1425 1424 1424 1424 1424 1424 1424 1424 1424 1425 1425
1444 1443 1442 1441 1440 1439 1438 1436 1435 1434 1433 1432 1431 1430 1428 1427 1426 1426 1425 1424 1423 1423 1422 1422 1422 1422 1421 1421 1421 1420 1420 1420 1420 1419 1419 1419 1419 1419 1419 1419 1420 1420 1420